Location: Newark
(33.6439°N, 114.9881°W)
Time: 20:05:51
(UTC+00:00)

OTV 5 (USA 277) - Visible Passes

Search period start: 22 March 2019 00:00
Search period end: 01 April 2019 00:00
Orbit: 315 x 320 km, 54.5° (Epoch: 14 March)

Date Brightness Start Highest point End Pass type
(mag) Time Alt. Az. Time Alt. Az. Time Alt. Az.
29 Mar ? 12:13:49 10° SE 12:14:48 11° ESE 12:15:46 10° ESE visible
30 Mar ? 12:27:20 15° SSW 12:29:18 38° SE 12:31:51 10° ENE visible
31 Mar ? 12:42:07 17° WSW 12:43:57 48° NW 12:46:35 10° NNE visible
